Location: Bittkow
(50.3000°N, 19.0000°E)
Time: 12:33:13
(UTC+00:00)

Cosmos 1844 Rocket - Pass Details

Date: 19 September 2020
Orbit: 823 x 846 km, 71.0° (Epoch: 23 October)

Event Time Altitude Azimuth Distance (km) Brightness Sun altitude
Rises 02:44:38 0° 333° (NNW) 3,391 5.8 -16.5°
Reaches altitude 10° 02:47:19 10° 342° (NNW) 2,458 5.2 -16.1°
Maximum altitude 02:52:25 34° 47° (NE) 1,360 4.4 -15.4°
Drops below altitude 10° 02:57:31 10° 112° (ESE) 2,459 5.8 -14.6°
Sets 03:00:11 0° 121° (ESE) 3,393 6.4 -14.2°
